Regional Weather Roundup
Issued by NWS Burlington, VT

Home | Current Version | Previous Version | Text Only | Print | Product List | Glossary On
Versions: 1 2 3 4 5 6 7 8 9 10 11 12 13 14 15 16 17 18 19 20 21 22 23 24 25 26 27 28 29 30 31 32 33 34 35 36 37 38 39 40 41 42 43 44 45 46 47 48 49 50
000
ASUS41 KBTV 261830
RWRBTV
VERMONT REGIONAL WEATHER ROUNDUP
NATIONAL WEATHER SERVICE BURLINGTON VT
100 PM EST MON JAN 26 2015

NOTE: "FAIR" INDICATES FEW OR NO CLOUDS BELOW 12,000 FEET WITH NO
SIGNIFICANT WEATHER AND/OR OBSTRUCTIONS TO VISIBILITY.

* THESE REPORTS ARE NOT UNDER NWS QUALITY CONTROL AND/OR DO NOT
  REPORT WEATHER SUCH AS PRECIPITATION AND FOG.

VTZ001>019-261900-
_____VERMONT_____


CITY           SKY/WX    TMP DP  RH WIND       PRES   REMARKS
BURLINGTON     MOCLDY    10  -2  58 NW8       30.13F
6HR MIN TEMP:  -4; 6HR MAX TEMP:  10;

MONTPELIER     PTCLDY     6  -5  60 CALM      30.09F
6HR MIN TEMP: -12; 6HR MAX TEMP:   6;

MORRISVILLE    FLURRIES  10  -3  55 NW3       30.12F
6HR MIN TEMP: -16; 6HR MAX TEMP:  10; 6HR PCP: TRACE;

ST. JOHNSBURY*   N/A      8  -4  58 MISG      30.09F
6HR MIN TEMP: -12; 6HR MAX TEMP:   8;

MIDDLEBURY*    FAIR      12  -1  55 NW8       30.07F
6HR MIN TEMP:  -3; 6HR MAX TEMP:  12;

RUTLAND*       PTCLDY    14  -2  48 N6        30.01F
6HR MIN TEMP:  -2; 6HR MAX TEMP:  12;

SPRINGFIELD    CLOUDY    15  -4  42 E3        30.08F
6HR MIN TEMP:   0; 6HR MAX TEMP:  15;

HIGHGATE*      FAIR       8  -4  59 N8        30.16F
6HR MIN TEMP:  -9; 6HR MAX TEMP:   8;

NEWPORT*       FAIR       3  -6  66 N6        30.10F
6HR MIN TEMP: -20; 6HR MAX TEMP:   2;

BENNINGTON     PTCLDY    22   0  38 CALM      29.97F
6HR MIN TEMP:   7; 6HR MAX TEMP:  22;

SUTTON*          N/A      7 N/A N/A MISG        N/A
GALLUP MILLS*    N/A     14 N/A N/A MISG        N/A
UNION VILLAGE*   N/A     14 N/A N/A MISG        N/A
MT. MANSFIELD*   N/A     12 N/A N/A CALM        N/A

_____LAKE CHAMPLAIN_____


CITY           SKY/WX    TMP DP  RH WIND       PRES   REMARKS
BURTON ISLAND*   N/A      9   0  66 N3          N/A
COLCHESTER RF*   N/A     10   1  67 N13         N/A  WCI  -5
DIAMOND ISL*     N/A     12   7  79 N20         N/A  WCI  -6

$$

NYZ007-026>031-035-052-083-261900-
_____NORTHERN NEW YORK_____


CITY           SKY/WX    TMP DP  RH WIND       PRES   REMARKS
PLATTSBURGH    PTCLDY     9  -1  64 N10       30.15F WCI  -5
6HR MIN TEMP:  -3; 6HR MAX TEMP:   9;

SARANAC LAKE   MOCLDY     9  -5  53 NE12      29.92F WCI  -6
6HR MIN TEMP: -23; 6HR MAX TEMP:   9;

MASSENA        CLEAR      5  -5  63 NE17      30.16F WCI -14
6HR MIN TEMP: -15; 6HR MAX TEMP:   6; 6HR PCP: TRACE;

OGDENSBURG*    CLEAR     10   0  61 NE13G21   30.09F WCI  -5
POTSDAM*       PTCLDY     9  -2  61 NE12G18   30.08F WCI  -6
STARK FALLS*     N/A     14 N/A N/A E2          N/A
WATERTOWN      PTCLDY    11  -2  56 NE18      30.04F WCI  -7
6HR MIN TEMP:  -2; 6HR MAX TEMP:  11;

FT DRUM        CLOUDY     8  -5  56 NE10      30.01F WCI  -6
6HR MIN TEMP: -10; 6HR MAX TEMP:   8;

ALBANY         CLOUDY    16  -1  47 N7        30.06F
6HR MIN TEMP:  10; 6HR MAX TEMP:  16;

GLENS FALLS    CLOUDY    17   0  47 N7        30.06F
6HR MIN TEMP:   5; 6HR MAX TEMP:  17;


$$
NHZ002-005-011-261900-
_____NEW HAMPSHIRE_____


CITY           SKY/WX    TMP DP  RH WIND       PRES   REMARKS
LEBANON        PTCLDY    14  -2  49 NW5       30.08F
6HR MIN TEMP:   0; 6HR MAX TEMP:  15;

KEENE          PTCLDY    19   3  49 N6        30.02F
6HR MIN TEMP:   7; 6HR MAX TEMP:  19;

MT WASHINGTON  PTCLDY     9 -26  19 NW23        N/A  WCI -12
6HR MIN TEMP:   2; 6HR MAX TEMP:   9;

PLYMOUTH       FAIR      19   0  44 CALM      30.09F
6HR MIN TEMP:   3; 6HR MAX TEMP:  18;

WHITEFIELD     CLEAR     11  -4  51 W3        30.05F
6HR MIN TEMP: -15; 6HR MAX TEMP:  11;


$$

_____REGIONAL QUEBEC LOCATIONS_____


CITY           SKY/WX    TMP DP  RH WIND       PRES   REMARKS
MONTREAL       MOCLDY     5  -6  61 NE14      30.22F WCI -12
QUEBEC CITY    PTCLDY     3  -8  60 SW8       30.22F
SHERBROOKE     CLEAR      7  -4  61 VRB3      30.13F

_____REGIONAL ONTARIO LOCATIONS_____


CITY           SKY/WX    TMP DP  RH WIND       PRES   REMARKS
OTTAWA         MOCLDY     5  -6  61 NE14      30.15F WCI -12

______KEY______
VSB  - VISIBILITY IN MILES
WCI  - WIND CHILL INDEX
HX   - HEAT INDEX
$$
NNNN


USA.gov is the U.S. government's official web portal to all federal, state and local government web resources and services.